Weather History for KFCM - October, 2014

Change the Weather History Date:

Friday, October 17, 2014

  Actual Average Record
Temperature  
Mean Temperature 52 °F -  
Max Temperature 57 °F 56 °F 70 °F (1998)
Min Temperature 46 °F 37 °F 28 °F (2001)
Degree Days  
Heating Degree Days 14    
Growing Degree Days 2 (Base 50)    
Moisture  
Dew Point 43 °F    
Average Humidity 70    
Maximum Humidity 77    
Minimum Humidity 64    
Precipitation  
Precipitation 0.00 in - - ()
Sea Level Pressure  
Sea Level Pressure 29.80 in    
Wind  
Wind Speed 15 mph (NW)    
Max Wind Speed 21 mph    
Max Gust Speed 29 mph    
Visibility 10 miles    
Events      
Averages and records for this station are not official NWS values.
T = Trace of Precipitation, MM = Missing Value Source: NWS Daily Summary

Daily Weather History Graph

Daily Weather History Graph

Search for Another Location

Airport or City:

Trip Planner

Search our weather history database for the weather conditions in past years. The results will help you decide how hot, cold, wet, or windy it might be!

Date:

Astronomy

Oct. 17, 2014 Rise Set
Actual Time 7:31 AM CDT 6:25 PM CDT
Civil Twilight 7:02 AM CDT 6:55 PM CDT
Nautical Twilight 6:28 AM CDT 7:29 PM CDT
Astronomical Twilight 5:54 AM CDT 8:02 PM CDT
Moon 1:22 AM CDT (10/17) 3:25 PM CDT (10/17)
Length of Visible Light 11h 52m
Length of Day
10h 53m
Waning Crescent, 32% of the Moon is Illuminated
Oct 17
Waning Crescent
Oct 23
New
Oct 30
First Quarter
Nov 6
Full
Nov 14
Last Quarter

Hourly Weather History & Observations

Time (CDT) Temp. Dew Point Humidity Pressure Visibility Wind Dir Wind Speed Gust Speed Precip Events Conditions
12:53 AM 57.9 °F 48.0 °F 70% 29.58 in 10.0 mi WNW 17.3 mph 23.0 mph N/A   Overcast
1:02 AM 57.9 °F 48.0 °F 70% 29.59 in 10.0 mi WNW 16.1 mph - N/A   Overcast
1:53 AM 55.9 °F 46.9 °F 72% 29.60 in 10.0 mi WNW 13.8 mph 24.2 mph N/A   Overcast
2:25 AM 55.0 °F 45.0 °F 69% 29.60 in 10.0 mi WNW 13.8 mph 26.5 mph N/A   Overcast
2:48 AM 53.6 °F 44.6 °F 72% 29.61 in 10.0 mi WNW 11.5 mph 24.2 mph N/A   Overcast
2:53 AM 54.0 °F 45.0 °F 72% 29.60 in 10.0 mi West 13.8 mph 20.7 mph N/A   Overcast
3:53 AM 53.1 °F 45.0 °F 74% 29.61 in 10.0 mi WNW 13.8 mph - N/A   Overcast
4:53 AM 53.1 °F 45.0 °F 74% 29.62 in 10.0 mi West 13.8 mph 23.0 mph N/A   Overcast
5:53 AM 53.1 °F 44.1 °F 71% 29.64 in 10.0 mi WNW 16.1 mph 26.5 mph N/A   Overcast
6:53 AM 52.0 °F 43.0 °F 71% 29.66 in 10.0 mi WNW 17.3 mph - N/A   Overcast
7:53 AM 51.1 °F 43.0 °F 74% 29.68 in 10.0 mi WNW 18.4 mph 24.2 mph N/A   Overcast
8:53 AM 51.1 °F 43.0 °F 74% 29.72 in 9.0 mi West 12.7 mph 23.0 mph N/A   Overcast
9:53 AM 51.1 °F 43.0 °F 74% 29.74 in 10.0 mi WNW 15.0 mph 23.0 mph N/A   Overcast
10:53 AM 52.0 °F 43.0 °F 71% 29.76 in 10.0 mi NW 15.0 mph 27.6 mph N/A   Overcast
11:53 AM 55.9 °F 44.1 °F 64% 29.78 in 10.0 mi NW 20.7 mph 28.8 mph N/A   Overcast
12:53 PM 55.9 °F 44.1 °F 64% 29.81 in 10.0 mi NW 15.0 mph 21.9 mph N/A   Overcast
1:53 PM 55.0 °F 43.0 °F 64% 29.83 in 10.0 mi NNW 18.4 mph 25.3 mph N/A   Overcast
2:53 PM 54.0 °F 43.0 °F 66% 29.86 in 10.0 mi NNW 13.8 mph 23.0 mph N/A   Overcast
3:30 PM 54.0 °F 43.0 °F 66% 29.87 in 10.0 mi NNW 13.8 mph 24.2 mph N/A   Overcast
3:53 PM 54.0 °F 43.0 °F 66% 29.89 in 10.0 mi NNW 15.0 mph 25.3 mph N/A   Overcast
4:05 PM 54.0 °F 43.0 °F 66% 29.89 in 10.0 mi NNW 15.0 mph 25.3 mph N/A   Overcast
4:53 PM 53.1 °F 44.1 °F 71% 29.92 in 10.0 mi NNW 15.0 mph 25.3 mph N/A   Overcast
5:14 PM 53.1 °F 44.1 °F 71% 29.92 in 10.0 mi NNW 11.5 mph 21.9 mph N/A   Overcast
5:53 PM 53.1 °F 43.0 °F 69% 29.95 in 10.0 mi NW 15.0 mph - N/A   Overcast
6:53 PM 53.1 °F 42.1 °F 66% 29.97 in 10.0 mi NNW 9.2 mph - N/A   Overcast
7:53 PM 53.1 °F 41.0 °F 64% 30.00 in 10.0 mi NW 9.2 mph - N/A   Overcast
8:53 PM 50.0 °F 39.0 °F 66% 30.02 in 10.0 mi NW 5.8 mph - N/A   Clear
9:53 PM 46.9 °F 39.9 °F 77% 30.04 in 10.0 mi WNW 8.1 mph - N/A   Clear
10:53 PM 48.0 °F 39.9 °F 74% 30.06 in 10.0 mi NNW 10.4 mph - N/A   Partly Cloudy
11:53 PM 48.9 °F 41.0 °F 74% 30.06 in 10.0 mi NW 6.9 mph - N/A   Overcast